TimeEDT,TemperatureF,Dew PointF,Humidity,Sea Level PressureIn,VisibilityMPH,Wind Direction,Wind SpeedMPH,Gust SpeedMPH,PrecipitationIn,Events,Conditions,WindDirDegrees,DateUTC
12:15 AM,38.3,36.0,91,30.31,10.0,Calm,Calm,-,N/A,,Clear,0,2013-04-21 04:15:00
12:35 AM,37.0,35.4,94,30.32,10.0,Calm,Calm,-,N/A,,Clear,0,2013-04-21 04:35:00
12:55 AM,37.8,35.4,91,30.32,10.0,Calm,Calm,-,N/A,,Clear,0,2013-04-21 04:55:00
1:15 AM,37.8,34.7,89,30.33,10.0,Calm,Calm,-,N/A,,Clear,0,2013-04-21 05:15:00
1:35 AM,36.5,34.2,91,30.33,10.0,Calm,Calm,-,N/A,,Clear,0,2013-04-21 05:35:00
1:55 AM,36.0,34.0,93,30.34,10.0,Calm,Calm,-,N/A,,Clear,0,2013-04-21 05:55:00
2:15 AM,35.6,33.8,93,30.34,10.0,Calm,Calm,-,N/A,,Clear,0,2013-04-21 06:15:00
2:35 AM,34.5,33.4,96,30.34,10.0,Calm,Calm,-,N/A,,Clear,0,2013-04-21 06:35:00
5:35 AM,32.5,32.0,98,30.42,10.0,Calm,Calm,-,N/A,,Clear,0,2013-04-21 09:35:00
5:55 AM,34.3,32.0,91,30.42,10.0,Calm,Calm,-,N/A,,Clear,0,2013-04-21 09:55:00
6:15 AM,37.6,30.0,74,30.43,10.0,Calm,Calm,-,N/A,,Clear,0,2013-04-21 10:15:00
6:35 AM,40.1,29.3,65,30.45,10.0,North,3.5,-,N/A,,Clear,360,2013-04-21 10:35:00
6:55 AM,40.1,29.1,65,30.46,10.0,North,4.6,-,N/A,,Clear,10,2013-04-21 10:55:00
7:15 AM,41.0,28.9,62,30.47,10.0,North,3.5,-,N/A,,Clear,10,2013-04-21 11:15:00
7:35 AM,41.2,29.5,63,30.49,10.0,NNE,3.5,-,N/A,,Clear,20,2013-04-21 11:35:00
7:55 AM,42.3,29.3,60,30.50,10.0,NE,3.5,-,N/A,,Clear,50,2013-04-21 11:55:00
8:15 AM,43.5,29.8,59,30.50,10.0,NE,6.9,-,N/A,,Clear,40,2013-04-21 12:15:00
8:35 AM,44.2,29.1,55,30.51,10.0,NE,8.1,-,N/A,,Clear,50,2013-04-21 12:35:00
8:55 AM,45.9,29.5,53,30.52,10.0,NE,4.6,-,N/A,,Clear,40,2013-04-21 12:55:00
9:15 AM,46.9,29.8,51,30.52,10.0,NNE,6.9,-,N/A,,Clear,30,2013-04-21 13:15:00
9:35 AM,46.8,28.8,50,30.52,10.0,NNE,6.9,-,N/A,,Clear,30,2013-04-21 13:35:00
9:55 AM,48.4,29.5,48,30.53,10.0,ENE,8.1,-,N/A,,Clear,70,2013-04-21 13:55:00
10:15 AM,49.1,30.0,48,30.54,10.0,NE,5.8,-,N/A,,Clear,40,2013-04-21 14:15:00
10:35 AM,50.0,30.4,47,30.54,10.0,East,6.9,-,N/A,,Clear,80,2013-04-21 14:35:00
10:55 AM,51.3,29.1,43,30.54,10.0,East,6.9,-,N/A,,Clear,90,2013-04-21 14:55:00
11:15 AM,51.8,31.1,45,30.53,10.0,East,10.4,-,N/A,,Clear,100,2013-04-21 15:15:00
11:35 AM,53.8,30.6,41,30.54,10.0,ESE,6.9,-,N/A,,Clear,110,2013-04-21 15:35:00
11:55 AM,54.5,30.9,41,30.54,10.0,East,5.8,-,N/A,,Clear,90,2013-04-21 15:55:00
12:15 PM,54.0,31.3,42,30.53,10.0,NNE,5.8,-,N/A,,Clear,30,2013-04-21 16:15:00
12:35 PM,53.8,31.6,43,30.52,10.0,East,6.9,-,N/A,,Clear,90,2013-04-21 16:35:00
12:55 PM,55.6,33.3,43,30.51,10.0,ESE,4.6,-,N/A,,Clear,120,2013-04-21 16:55:00
1:15 PM,56.1,33.1,42,30.50,10.0,ENE,8.1,-,N/A,,Clear,60,2013-04-21 17:15:00
1:35 PM,55.9,32.0,40,30.49,10.0,ESE,3.5,-,N/A,,Clear,110,2013-04-21 17:35:00
1:55 PM,57.7,33.3,40,30.49,10.0,NE,4.6,-,N/A,,Clear,50,2013-04-21 17:55:00
2:15 PM,57.7,32.5,39,30.48,10.0,ENE,3.5,-,N/A,,Clear,60,2013-04-21 18:15:00
2:35 PM,58.6,33.8,39,30.48,10.0,ENE,6.9,-,N/A,,Clear,60,2013-04-21 18:35:00
2:55 PM,59.4,33.3,37,30.47,10.0,SSE,3.5,-,N/A,,Clear,150,2013-04-21 18:55:00
3:15 PM,60.8,34.2,37,30.47,10.0,East,11.5,-,N/A,,Clear,90,2013-04-21 19:15:00
3:35 PM,60.8,33.6,36,30.46,10.0,East,6.9,-,N/A,,Clear,80,2013-04-21 19:35:00
3:55 PM,61.2,33.6,36,30.45,10.0,East,4.6,-,N/A,,Clear,100,2013-04-21 19:55:00
4:15 PM,60.1,33.8,37,30.45,10.0,East,4.6,-,N/A,,Scattered Clouds,80,2013-04-21 20:15:00
4:35 PM,61.7,34.9,37,30.45,10.0,East,4.6,-,N/A,,Scattered Clouds,100,2013-04-21 20:35:00
4:55 PM,59.2,34.3,39,30.44,10.0,East,8.1,-,N/A,,Scattered Clouds,100,2013-04-21 20:55:00
5:15 PM,61.5,35.4,38,30.43,10.0,East,11.5,18.4,N/A,,Mostly Cloudy,90,2013-04-21 21:15:00
5:35 PM,57.7,34.7,42,30.44,10.0,SE,3.5,-,N/A,,Scattered Clouds,130,2013-04-21 21:35:00
5:55 PM,59.9,35.4,40,30.44,10.0,ESE,8.1,-,N/A,,Mostly Cloudy,110,2013-04-21 21:55:00
6:15 PM,57.6,34.0,41,30.44,10.0,East,9.2,-,N/A,,Scattered Clouds,100,2013-04-21 22:15:00
6:35 PM,57.6,34.3,42,30.44,10.0,SE,8.1,-,N/A,,Scattered Clouds,130,2013-04-21 22:35:00
6:55 PM,56.8,34.3,43,30.44,10.0,ESE,8.1,-,N/A,,Scattered Clouds,110,2013-04-21 22:55:00
7:15 PM,55.8,34.3,44,30.45,10.0,ESE,6.9,-,N/A,,Clear,120,2013-04-21 23:15:00
7:35 PM,53.6,35.6,51,30.45,10.0,East,6.9,-,N/A,,Clear,100,2013-04-21 23:35:00
7:55 PM,52.0,35.2,53,30.46,10.0,East,4.6,-,N/A,,Clear,90,2013-04-21 23:55:00
8:15 PM,50.9,34.5,54,30.46,10.0,Calm,Calm,-,N/A,,Clear,0,2013-04-22 00:15:00
8:35 PM,48.9,37.2,64,30.47,10.0,Calm,Calm,-,N/A,,Clear,0,2013-04-22 00:35:00
8:55 PM,45.1,37.9,76,30.47,10.0,Calm,Calm,-,N/A,,Clear,0,2013-04-22 00:55:00
9:15 PM,43.7,38.3,81,30.48,10.0,Calm,Calm,-,N/A,,Clear,0,2013-04-22 01:15:00
9:35 PM,43.0,38.5,84,30.49,10.0,Calm,Calm,-,N/A,,Clear,0,2013-04-22 01:35:00
9:55 PM,41.9,37.9,86,30.50,10.0,Calm,Calm,-,N/A,,Clear,0,2013-04-22 01:55:00
10:15 PM,41.4,37.8,87,30.50,10.0,Calm,Calm,-,N/A,,Clear,0,2013-04-22 02:15:00
10:35 PM,40.6,37.8,89,30.50,10.0,Calm,Calm,-,N/A,,Scattered Clouds,0,2013-04-22 02:35:00
10:55 PM,41.0,37.8,88,30.50,10.0,Calm,Calm,-,N/A,,Mostly Cloudy,0,2013-04-22 02:55:00
11:15 PM,41.2,37.9,88,30.50,10.0,Calm,Calm,-,N/A,,Mostly Cloudy,0,2013-04-22 03:15:00
11:35 PM,39.9,37.4,91,30.49,10.0,Calm,Calm,-,N/A,,Scattered Clouds,0,2013-04-22 03:35:00
11:55 PM,39.6,37.2,91,30.49,10.0,Calm,Calm,-,N/A,,Clear,0,2013-04-22 03:55:00